owner,sensor,date,latitude,longitude,sea_surface_height_above_sea_level,qcFlag 
COMPS,ioos:station:USF.COMPS:ANC:1,2008-11-01T00:00:00Z,28.1930,-82.7890,-0.211,1111122 
COMPS,ioos:station:USF.COMPS:ANC:1,2008-11-01T00:06:00Z,28.1930,-82.7890,-0.206,1111122 
COMPS,ioos:station:USF.COMPS:ANC:1,2008-11-01T00:12:00Z,28.1930,-82.7890,-0.202,1111122 
COMPS,ioos:station:USF.COMPS:ANC:1,2008-11-01T00:18:00Z,28.1930,-82.7890,-0.196,1111122 
COMPS,ioos:station:USF.COMPS:ANC:1,2008-11-01T00:24:00Z,28.1930,-82.7890,-0.195,1111122 
COMPS,ioos:station:USF.COMPS:ANC:1,2008-11-01T00:30:00Z,28.1930,-82.7890,-0.192,1111122 
COMPS,ioos:station:USF.COMPS:ANC:1,2008-11-01T00:36:00Z,28.1930,-82.7890,-0.186,1111122 
COMPS,ioos:station:USF.COMPS:ANC:1,2008-11-01T00:42:00Z,28.1930,-82.7890,-0.176,1111122 
COMPS,ioos:station:USF.COMPS:ANC:1,2008-11-01T00:48:00Z,28.1930,-82.7890,-0.16,1111122 
COMPS,ioos:station:USF.COMPS:ANC:1,2008-11-01T00:54:00Z,28.1930,-82.7890,-0.144,1111122 
COMPS,ioos:station:USF.COMPS:ANC:1,2008-11-01T01:00:00Z,28.1930,-82.7890,-0.132,1111122 
COMPS,ioos:station:USF.COMPS:ANC:1,2008-11-01T01:06:00Z,28.1930,-82.7890,-0.121,1111122 
COMPS,ioos:station:USF.COMPS:ANC:1,2008-11-01T01:12:00Z,28.1930,-82.7890,-0.119,1111122 
COMPS,ioos:station:USF.COMPS:ANC:1,2008-11-01T01:18:00Z,28.1930,-82.7890,-0.118,1111122 
COMPS,ioos:station:USF.COMPS:ANC:1,2008-11-01T01:24:00Z,28.1930,-82.7890,-0.106,1111122 
COMPS,ioos:station:USF.COMPS:ANC:1,2008-11-01T01:30:00Z,28.1930,-82.7890,-0.091,1111122 
COMPS,ioos:station:USF.COMPS:ANC:1,2008-11-01T01:36:00Z,28.1930,-82.7890,-0.081,1111122 
COMPS,ioos:station:USF.COMPS:ANC:1,2008-11-01T01:42:00Z,28.1930,-82.7890,-0.068,1111122 
COMPS,ioos:station:USF.COMPS:ANC:1,2008-11-01T01:48:00Z,28.1930,-82.7890,-0.056,1111122 
COMPS,ioos:station:USF.COMPS:ANC:1,2008-11-01T01:54:00Z,28.1930,-82.7890,-0.04,1111122 
COMPS,ioos:station:USF.COMPS:ANC:1,2008-11-01T02:00:00Z,28.1930,-82.7890,-0.025,1111122 
COMPS,ioos:station:USF.COMPS:ANC:1,2008-11-01T02:06:00Z,28.1930,-82.7890,-0.013,1111122 
COMPS,ioos:station:USF.COMPS:ANC:1,2008-11-01T02:12:00Z,28.1930,-82.7890,-0.001,1111122 
COMPS,ioos:station:USF.COMPS:ANC:1,2008-11-01T02:18:00Z,28.1930,-82.7890,0.006,1111122 
COMPS,ioos:station:USF.COMPS:ANC:1,2008-11-01T02:24:00Z,28.1930,-82.7890,0.02,1111122 
COMPS,ioos:station:USF.COMPS:ANC:1,2008-11-01T02:30:00Z,28.1930,-82.7890,0.039,1111122 
COMPS,ioos:station:USF.COMPS:ANC:1,2008-11-01T02:36:00Z,28.1930,-82.7890,0.053,1111122 
COMPS,ioos:station:USF.COMPS:ANC:1,2008-11-01T02:42:00Z,28.1930,-82.7890,0.065,1111122 
COMPS,ioos:station:USF.COMPS:ANC:1,2008-11-01T02:48:00Z,28.1930,-82.7890,0.079,1111122 
COMPS,ioos:station:USF.COMPS:ANC:1,2008-11-01T02:54:00Z,28.1930,-82.7890,0.096,1111122 
COMPS,ioos:station:USF.COMPS:ANC:1,2008-11-01T03:00:00Z,28.1930,-82.7890,0.114,1111122 
COMPS,ioos:station:USF.COMPS:ANC:1,2008-11-01T03:06:00Z,28.1930,-82.7890,0.13,1111122 
COMPS,ioos:station:USF.COMPS:ANC:1,2008-11-01T03:12:00Z,28.1930,-82.7890,0.145,1111122 
COMPS,ioos:station:USF.COMPS:ANC:1,2008-11-01T03:18:00Z,28.1930,-82.7890,0.157,1111122 
COMPS,ioos:station:USF.COMPS:ANC:1,2008-11-01T03:24:00Z,28.1930,-82.7890,0.172,1111122 
COMPS,ioos:station:USF.COMPS:ANC:1,2008-11-01T03:30:00Z,28.1930,-82.7890,0.19,1111122 
COMPS,ioos:station:USF.COMPS:ANC:1,2008-11-01T03:36:00Z,28.1930,-82.7890,0.207,1111122 
COMPS,ioos:station:USF.COMPS:ANC:1,2008-11-01T03:42:00Z,28.1930,-82.7890,0.221,1111122 
COMPS,ioos:station:USF.COMPS:ANC:1,2008-11-01T03:48:00Z,28.1930,-82.7890,0.233,1111122 
COMPS,ioos:station:USF.COMPS:ANC:1,2008-11-01T03:54:00Z,28.1930,-82.7890,0.244,1111122 
COMPS,ioos:station:USF.COMPS:ANC:1,2008-11-01T04:00:00Z,28.1930,-82.7890,0.253,1111122 
COMPS,ioos:station:USF.COMPS:ANC:1,2008-11-01T04:06:00Z,28.1930,-82.7890,0.261,1111122 
COMPS,ioos:station:USF.COMPS:ANC:1,2008-11-01T04:12:00Z,28.1930,-82.7890,0.265,1111122 
COMPS,ioos:station:USF.COMPS:ANC:1,2008-11-01T04:18:00Z,28.1930,-82.7890,0.264,1111122 
COMPS,ioos:station:USF.COMPS:ANC:1,2008-11-01T04:24:00Z,28.1930,-82.7890,0.273,1111122 
COMPS,ioos:station:USF.COMPS:ANC:1,2008-11-01T04:30:00Z,28.1930,-82.7890,0.283,1111122 
COMPS,ioos:station:USF.COMPS:ANC:1,2008-11-01T04:36:00Z,28.1930,-82.7890,0.288,1111122 
COMPS,ioos:station:USF.COMPS:ANC:1,2008-11-01T04:42:00Z,28.1930,-82.7890,0.291,1111122 
COMPS,ioos:station:USF.COMPS:ANC:1,2008-11-01T04:48:00Z,28.1930,-82.7890,0.294,1111122 
COMPS,ioos:station:USF.COMPS:ANC:1,2008-11-01T04:54:00Z,28.1930,-82.7890,0.3,1111122 
COMPS,ioos:station:USF.COMPS:ANC:1,2008-11-01T05:00:00Z,28.1930,-82.7890,0.303,1111122 
COMPS,ioos:station:USF.COMPS:ANC:1,2008-11-01T05:06:00Z,28.1930,-82.7890,0.303,1111122 
COMPS,ioos:station:USF.COMPS:ANC:1,2008-11-01T05:12:00Z,28.1930,-82.7890,0.3,1111122 
COMPS,ioos:station:USF.COMPS:ANC:1,2008-11-01T05:18:00Z,28.1930,-82.7890,0.297,1111122 
COMPS,ioos:station:USF.COMPS:ANC:1,2008-11-01T05:24:00Z,28.1930,-82.7890,0.297,1111122 
COMPS,ioos:station:USF.COMPS:ANC:1,2008-11-01T05:30:00Z,28.1930,-82.7890,0.293,1111122 
COMPS,ioos:station:USF.COMPS:ANC:1,2008-11-01T05:36:00Z,28.1930,-82.7890,0.281,1111122 
COMPS,ioos:station:USF.COMPS:ANC:1,2008-11-01T05:42:00Z,28.1930,-82.7890,0.272,1111122 
COMPS,ioos:station:USF.COMPS:ANC:1,2008-11-01T05:48:00Z,28.1930,-82.7890,0.267,1111122 
COMPS,ioos:station:USF.COMPS:ANC:1,2008-11-01T05:54:00Z,28.1930,-82.7890,0.259,1111122 
COMPS,ioos:station:USF.COMPS:ANC:1,2008-11-01T06:00:00Z,28.1930,-82.7890,0.244,1111122 
COMPS,ioos:station:USF.COMPS:ANC:1,2008-11-01T06:06:00Z,28.1930,-82.7890,0.232,1111122 
COMPS,ioos:station:USF.COMPS:ANC:1,2008-11-01T06:12:00Z,28.1930,-82.7890,0.223,1111122 
COMPS,ioos:station:USF.COMPS:ANC:1,2008-11-01T06:18:00Z,28.1930,-82.7890,0.217,1111122 
COMPS,ioos:station:USF.COMPS:ANC:1,2008-11-01T06:24:00Z,28.1930,-82.7890,0.211,1111122 
COMPS,ioos:station:USF.COMPS:ANC:1,2008-11-01T06:30:00Z,28.1930,-82.7890,0.202,1111122 
COMPS,ioos:station:USF.COMPS:ANC:1,2008-11-01T06:36:00Z,28.1930,-82.7890,0.193,1111122 
COMPS,ioos:station:USF.COMPS:ANC:1,2008-11-01T06:42:00Z,28.1930,-82.7890,0.187,1111122 
COMPS,ioos:station:USF.COMPS:ANC:1,2008-11-01T06:48:00Z,28.1930,-82.7890,0.177,1111122 
COMPS,ioos:station:USF.COMPS:ANC:1,2008-11-01T06:54:00Z,28.1930,-82.7890,0.166,1111122 
COMPS,ioos:station:USF.COMPS:ANC:1,2008-11-01T07:00:00Z,28.1930,-82.7890,0.154,1111122 
COMPS,ioos:station:USF.COMPS:ANC:1,2008-11-01T07:06:00Z,28.1930,-82.7890,0.144,1111122 
COMPS,ioos:station:USF.COMPS:ANC:1,2008-11-01T07:12:00Z,28.1930,-82.7890,0.131,1111122 
COMPS,ioos:station:USF.COMPS:ANC:1,2008-11-01T07:18:00Z,28.1930,-82.7890,0.121,1111122 
COMPS,ioos:station:USF.COMPS:ANC:1,2008-11-01T07:24:00Z,28.1930,-82.7890,0.114,1111122 
COMPS,ioos:station:USF.COMPS:ANC:1,2008-11-01T07:30:00Z,28.1930,-82.7890,0.101,1111122 
COMPS,ioos:station:USF.COMPS:ANC:1,2008-11-01T07:36:00Z,28.1930,-82.7890,0.089,1111122 
COMPS,ioos:station:USF.COMPS:ANC:1,2008-11-01T07:42:00Z,28.1930,-82.7890,0.078,1111122 
COMPS,ioos:station:USF.COMPS:ANC:1,2008-11-01T07:48:00Z,28.1930,-82.7890,0.065,1111122 
COMPS,ioos:station:USF.COMPS:ANC:1,2008-11-01T07:54:00Z,28.1930,-82.7890,0.053,1111122 
COMPS,ioos:station:USF.COMPS:ANC:1,2008-11-01T08:00:00Z,28.1930,-82.7890,0.042,1111122 
COMPS,ioos:station:USF.COMPS:ANC:1,2008-11-01T08:06:00Z,28.1930,-82.7890,0.03,1111122 
COMPS,ioos:station:USF.COMPS:ANC:1,2008-11-01T08:12:00Z,28.1930,-82.7890,0.016,1111122 
COMPS,ioos:station:USF.COMPS:ANC:1,2008-11-01T08:18:00Z,28.1930,-82.7890,0.0,1114422 
COMPS,ioos:station:USF.COMPS:ANC:1,2008-11-01T08:24:00Z,28.1930,-82.7890,-0.013,1111122 
COMPS,ioos:station:USF.COMPS:ANC:1,2008-11-01T08:30:00Z,28.1930,-82.7890,-0.026,1111122 
COMPS,ioos:station:USF.COMPS:ANC:1,2008-11-01T08:36:00Z,28.1930,-82.7890,-0.041,1111122 
COMPS,ioos:station:USF.COMPS:ANC:1,2008-11-01T08:42:00Z,28.1930,-82.7890,-0.056,1111122 
COMPS,ioos:station:USF.COMPS:ANC:1,2008-11-01T08:48:00Z,28.1930,-82.7890,-0.073,1111122 
COMPS,ioos:station:USF.COMPS:ANC:1,2008-11-01T08:54:00Z,28.1930,-82.7890,-0.089,1111122 
COMPS,ioos:station:USF.COMPS:ANC:1,2008-11-01T09:00:00Z,28.1930,-82.7890,-0.105,1111122 
COMPS,ioos:station:USF.COMPS:ANC:1,2008-11-01T09:06:00Z,28.1930,-82.7890,-0.122,1111122 
COMPS,ioos:station:USF.COMPS:ANC:1,2008-11-01T09:12:00Z,28.1930,-82.7890,-0.139,1111122 
COMPS,ioos:station:USF.COMPS:ANC:1,2008-11-01T09:18:00Z,28.1930,-82.7890,-0.158,1111122 
COMPS,ioos:station:USF.COMPS:ANC:1,2008-11-01T09:24:00Z,28.1930,-82.7890,-0.176,1111122 
COMPS,ioos:station:USF.COMPS:ANC:1,2008-11-01T09:30:00Z,28.1930,-82.7890,-0.195,1111122 
COMPS,ioos:station:USF.COMPS:ANC:1,2008-11-01T09:36:00Z,28.1930,-82.7890,-0.215,1111122 
COMPS,ioos:station:USF.COMPS:ANC:1,2008-11-01T09:42:00Z,28.1930,-82.7890,-0.236,1111122 
COMPS,ioos:station:USF.COMPS:ANC:1,2008-11-01T09:48:00Z,28.1930,-82.7890,-0.255,1111122 
COMPS,ioos:station:USF.COMPS:ANC:1,2008-11-01T09:54:00Z,28.1930,-82.7890,-0.272,1111122 
COMPS,ioos:station:USF.COMPS:ANC:1,2008-11-01T10:00:00Z,28.1930,-82.7890,-0.29,1111122 
COMPS,ioos:station:USF.COMPS:ANC:1,2008-11-01T10:06:00Z,28.1930,-82.7890,-0.308,1111122 
COMPS,ioos:station:USF.COMPS:ANC:1,2008-11-01T10:12:00Z,28.1930,-82.7890,-0.328,1111122 
COMPS,ioos:station:USF.COMPS:ANC:1,2008-11-01T10:18:00Z,28.1930,-82.7890,-0.345,1111122 
COMPS,ioos:station:USF.COMPS:ANC:1,2008-11-01T10:24:00Z,28.1930,-82.7890,-0.364,1111122 
COMPS,ioos:station:USF.COMPS:ANC:1,2008-11-01T10:30:00Z,28.1930,-82.7890,-0.384,1111122 
COMPS,ioos:station:USF.COMPS:ANC:1,2008-11-01T10:36:00Z,28.1930,-82.7890,-0.403,1111122 
COMPS,ioos:station:USF.COMPS:ANC:1,2008-11-01T10:42:00Z,28.1930,-82.7890,-0.423,1111122 
COMPS,ioos:station:USF.COMPS:ANC:1,2008-11-01T10:48:00Z,28.1930,-82.7890,-0.442,1111122 
COMPS,ioos:station:USF.COMPS:ANC:1,2008-11-01T10:54:00Z,28.1930,-82.7890,-0.459,1111122 
COMPS,ioos:station:USF.COMPS:ANC:1,2008-11-01T11:00:00Z,28.1930,-82.7890,-0.477,1111122 
COMPS,ioos:station:USF.COMPS:ANC:1,2008-11-01T11:06:00Z,28.1930,-82.7890,-0.497,1111122 
COMPS,ioos:station:USF.COMPS:ANC:1,2008-11-01T11:12:00Z,28.1930,-82.7890,-0.517,1111122 
COMPS,ioos:station:USF.COMPS:ANC:1,2008-11-01T11:18:00Z,28.1930,-82.7890,-0.538,1111122 
COMPS,ioos:station:USF.COMPS:ANC:1,2008-11-01T11:24:00Z,28.1930,-82.7890,-0.556,1111122 
COMPS,ioos:station:USF.COMPS:ANC:1,2008-11-01T11:30:00Z,28.1930,-82.7890,-0.574,1111122 
COMPS,ioos:station:USF.COMPS:ANC:1,2008-11-01T11:36:00Z,28.1930,-82.7890,-0.592,1111122 
COMPS,ioos:station:USF.COMPS:ANC:1,2008-11-01T11:42:00Z,28.1930,-82.7890,-0.609,1111122 
COMPS,ioos:station:USF.COMPS:ANC:1,2008-11-01T11:48:00Z,28.1930,-82.7890,-0.626,1111122 
COMPS,ioos:station:USF.COMPS:ANC:1,2008-11-01T11:54:00Z,28.1930,-82.7890,-0.643,1111122 
COMPS,ioos:station:USF.COMPS:ANC:1,2008-11-01T12:00:00Z,28.1930,-82.7890,-0.659,1111122 
COMPS,ioos:station:USF.COMPS:ANC:1,2008-11-01T12:06:00Z,28.1930,-82.7890,-0.671,1111122 
COMPS,ioos:station:USF.COMPS:ANC:1,2008-11-01T12:12:00Z,28.1930,-82.7890,-0.683,1111122 
COMPS,ioos:station:USF.COMPS:ANC:1,2008-11-01T12:18:00Z,28.1930,-82.7890,-0.694,1111122 
COMPS,ioos:station:USF.COMPS:ANC:1,2008-11-01T12:24:00Z,28.1930,-82.7890,-0.698,1111122 
COMPS,ioos:station:USF.COMPS:ANC:1,2008-11-01T12:30:00Z,28.1930,-82.7890,-0.693,1111122 
COMPS,ioos:station:USF.COMPS:ANC:1,2008-11-01T12:36:00Z,28.1930,-82.7890,-0.692,1111122 
COMPS,ioos:station:USF.COMPS:ANC:1,2008-11-01T12:42:00Z,28.1930,-82.7890,-0.692,1111122 
COMPS,ioos:station:USF.COMPS:ANC:1,2008-11-01T12:48:00Z,28.1930,-82.7890,-0.691,1111122 
COMPS,ioos:station:USF.COMPS:ANC:1,2008-11-01T12:54:00Z,28.1930,-82.7890,-0.692,1111122 
COMPS,ioos:station:USF.COMPS:ANC:1,2008-11-01T13:00:00Z,28.1930,-82.7890,-0.692,1111122 
COMPS,ioos:station:USF.COMPS:ANC:1,2008-11-01T13:06:00Z,28.1930,-82.7890,-0.693,1111122 
COMPS,ioos:station:USF.COMPS:ANC:1,2008-11-01T13:12:00Z,28.1930,-82.7890,-0.694,1111122 
COMPS,ioos:station:USF.COMPS:ANC:1,2008-11-01T13:18:00Z,28.1930,-82.7890,-0.694,1111122 
COMPS,ioos:station:USF.COMPS:ANC:1,2008-11-01T13:24:00Z,28.1930,-82.7890,-0.695,1111122 
COMPS,ioos:station:USF.COMPS:ANC:1,2008-11-01T13:30:00Z,28.1930,-82.7890,-0.695,1111122 
COMPS,ioos:station:USF.COMPS:ANC:1,2008-11-01T13:36:00Z,28.1930,-82.7890,-0.695,1111122 
COMPS,ioos:station:USF.COMPS:ANC:1,2008-11-01T13:42:00Z,28.1930,-82.7890,-0.696,1111122 
COMPS,ioos:station:USF.COMPS:ANC:1,2008-11-01T13:48:00Z,28.1930,-82.7890,-0.703,1111122 
COMPS,ioos:station:USF.COMPS:ANC:1,2008-11-01T13:54:00Z,28.1930,-82.7890,-0.693,1111122 
COMPS,ioos:station:USF.COMPS:ANC:1,2008-11-01T14:00:00Z,28.1930,-82.7890,-0.683,1111122 
COMPS,ioos:station:USF.COMPS:ANC:1,2008-11-01T14:06:00Z,28.1930,-82.7890,-0.672,1111122 
COMPS,ioos:station:USF.COMPS:ANC:1,2008-11-01T14:12:00Z,28.1930,-82.7890,-0.661,1111122 
COMPS,ioos:station:USF.COMPS:ANC:1,2008-11-01T14:18:00Z,28.1930,-82.7890,-0.654,1111122 
COMPS,ioos:station:USF.COMPS:ANC:1,2008-11-01T14:24:00Z,28.1930,-82.7890,-0.645,1111122 
COMPS,ioos:station:USF.COMPS:ANC:1,2008-11-01T14:30:00Z,28.1930,-82.7890,-0.631,1111122 
COMPS,ioos:station:USF.COMPS:ANC:1,2008-11-01T14:36:00Z,28.1930,-82.7890,-0.61,1111122 
COMPS,ioos:station:USF.COMPS:ANC:1,2008-11-01T14:42:00Z,28.1930,-82.7890,-0.592,1111122 
COMPS,ioos:station:USF.COMPS:ANC:1,2008-11-01T14:48:00Z,28.1930,-82.7890,-0.576,1111122 
COMPS,ioos:station:USF.COMPS:ANC:1,2008-11-01T14:54:00Z,28.1930,-82.7890,-0.557,1111122 
COMPS,ioos:station:USF.COMPS:ANC:1,2008-11-01T15:00:00Z,28.1930,-82.7890,-0.538,1111122 
COMPS,ioos:station:USF.COMPS:ANC:1,2008-11-01T15:06:00Z,28.1930,-82.7890,-0.519,1111122 
COMPS,ioos:station:USF.COMPS:ANC:1,2008-11-01T15:12:00Z,28.1930,-82.7890,-0.498,1111122 
COMPS,ioos:station:USF.COMPS:ANC:1,2008-11-01T15:18:00Z,28.1930,-82.7890,-0.477,1111122 
COMPS,ioos:station:USF.COMPS:ANC:1,2008-11-01T15:24:00Z,28.1930,-82.7890,-0.455,1111122 
COMPS,ioos:station:USF.COMPS:ANC:1,2008-11-01T15:30:00Z,28.1930,-82.7890,-0.436,1111122 
COMPS,ioos:station:USF.COMPS:ANC:1,2008-11-01T15:36:00Z,28.1930,-82.7890,-0.42,1111122 
COMPS,ioos:station:USF.COMPS:ANC:1,2008-11-01T15:42:00Z,28.1930,-82.7890,-0.404,1111122 
COMPS,ioos:station:USF.COMPS:ANC:1,2008-11-01T15:48:00Z,28.1930,-82.7890,-0.388,1111122 
COMPS,ioos:station:USF.COMPS:ANC:1,2008-11-01T15:54:00Z,28.1930,-82.7890,-0.371,1111122 
COMPS,ioos:station:USF.COMPS:ANC:1,2008-11-01T16:00:00Z,28.1930,-82.7890,-0.355,1111122 
COMPS,ioos:station:USF.COMPS:ANC:1,2008-11-01T16:06:00Z,28.1930,-82.7890,-0.337,1111122 
COMPS,ioos:station:USF.COMPS:ANC:1,2008-11-01T16:12:00Z,28.1930,-82.7890,-0.32,1111122 
COMPS,ioos:station:USF.COMPS:ANC:1,2008-11-01T16:18:00Z,28.1930,-82.7890,-0.307,1111122 
COMPS,ioos:station:USF.COMPS:ANC:1,2008-11-01T16:24:00Z,28.1930,-82.7890,-0.29,1111122 
COMPS,ioos:station:USF.COMPS:ANC:1,2008-11-01T16:30:00Z,28.1930,-82.7890,-0.268,1111122 
COMPS,ioos:station:USF.COMPS:ANC:1,2008-11-01T16:36:00Z,28.1930,-82.7890,-0.248,1111122 
COMPS,ioos:station:USF.COMPS:ANC:1,2008-11-01T16:42:00Z,28.1930,-82.7890,-0.232,1111122 
COMPS,ioos:station:USF.COMPS:ANC:1,2008-11-01T16:48:00Z,28.1930,-82.7890,-0.213,1111122 
COMPS,ioos:station:USF.COMPS:ANC:1,2008-11-01T16:54:00Z,28.1930,-82.7890,-0.196,1111122 
COMPS,ioos:station:USF.COMPS:ANC:1,2008-11-01T17:00:00Z,28.1930,-82.7890,-0.185,1111122 
COMPS,ioos:station:USF.COMPS:ANC:1,2008-11-01T17:06:00Z,28.1930,-82.7890,-0.174,1111122 
COMPS,ioos:station:USF.COMPS:ANC:1,2008-11-01T17:12:00Z,28.1930,-82.7890,-0.16,1111122 
COMPS,ioos:station:USF.COMPS:ANC:1,2008-11-01T17:18:00Z,28.1930,-82.7890,-0.142,1111122 
COMPS,ioos:station:USF.COMPS:ANC:1,2008-11-01T17:24:00Z,28.1930,-82.7890,-0.127,1111122 
COMPS,ioos:station:USF.COMPS:ANC:1,2008-11-01T17:30:00Z,28.1930,-82.7890,-0.111,1111122 
COMPS,ioos:station:USF.COMPS:ANC:1,2008-11-01T17:36:00Z,28.1930,-82.7890,-0.103,1111122 
COMPS,ioos:station:USF.COMPS:ANC:1,2008-11-01T17:42:00Z,28.1930,-82.7890,-0.095,1111122 
COMPS,ioos:station:USF.COMPS:ANC:1,2008-11-01T17:48:00Z,28.1930,-82.7890,-0.087,1111122 
COMPS,ioos:station:USF.COMPS:ANC:1,2008-11-01T17:54:00Z,28.1930,-82.7890,-0.08,1111122 
COMPS,ioos:station:USF.COMPS:ANC:1,2008-11-01T18:00:00Z,28.1930,-82.7890,-0.074,1111122 
COMPS,ioos:station:USF.COMPS:ANC:1,2008-11-01T18:06:00Z,28.1930,-82.7890,-0.069,1111122 
COMPS,ioos:station:USF.COMPS:ANC:1,2008-11-01T18:12:00Z,28.1930,-82.7890,-0.058,1111122 
COMPS,ioos:station:USF.COMPS:ANC:1,2008-11-01T18:18:00Z,28.1930,-82.7890,-0.047,1111122 
COMPS,ioos:station:USF.COMPS:ANC:1,2008-11-01T18:24:00Z,28.1930,-82.7890,-0.037,1111122 
COMPS,ioos:station:USF.COMPS:ANC:1,2008-11-01T18:30:00Z,28.1930,-82.7890,-0.027,1111122 
COMPS,ioos:station:USF.COMPS:ANC:1,2008-11-01T18:36:00Z,28.1930,-82.7890,-0.014,1111122 
COMPS,ioos:station:USF.COMPS:ANC:1,2008-11-01T18:42:00Z,28.1930,-82.7890,-0.006,1111122 
COMPS,ioos:station:USF.COMPS:ANC:1,2008-11-01T18:48:00Z,28.1930,-82.7890,-0.003,1111122 
COMPS,ioos:station:USF.COMPS:ANC:1,2008-11-01T18:54:00Z,28.1930,-82.7890,0.005,1111122 
COMPS,ioos:station:USF.COMPS:ANC:1,2008-11-01T19:00:00Z,28.1930,-82.7890,0.012,1111122 
COMPS,ioos:station:USF.COMPS:ANC:1,2008-11-01T19:06:00Z,28.1930,-82.7890,0.016,1111122 
COMPS,ioos:station:USF.COMPS:ANC:1,2008-11-01T19:12:00Z,28.1930,-82.7890,0.02,1111122 
COMPS,ioos:station:USF.COMPS:ANC:1,2008-11-01T19:18:00Z,28.1930,-82.7890,0.023,1111122 
COMPS,ioos:station:USF.COMPS:ANC:1,2008-11-01T19:24:00Z,28.1930,-82.7890,0.022,1111122 
COMPS,ioos:station:USF.COMPS:ANC:1,2008-11-01T19:30:00Z,28.1930,-82.7890,0.027,1111122 
COMPS,ioos:station:USF.COMPS:ANC:1,2008-11-01T19:36:00Z,28.1930,-82.7890,0.037,1111122 
COMPS,ioos:station:USF.COMPS:ANC:1,2008-11-01T19:42:00Z,28.1930,-82.7890,0.038,1111122 
COMPS,ioos:station:USF.COMPS:ANC:1,2008-11-01T19:48:00Z,28.1930,-82.7890,0.033,1111122 
COMPS,ioos:station:USF.COMPS:ANC:1,2008-11-01T19:54:00Z,28.1930,-82.7890,0.03,1111122 
COMPS,ioos:station:USF.COMPS:ANC:1,2008-11-01T20:00:00Z,28.1930,-82.7890,0.025,1111122 
COMPS,ioos:station:USF.COMPS:ANC:1,2008-11-01T20:06:00Z,28.1930,-82.7890,0.023,1111122 
COMPS,ioos:station:USF.COMPS:ANC:1,2008-11-01T20:12:00Z,28.1930,-82.7890,0.017,1111122 
COMPS,ioos:station:USF.COMPS:ANC:1,2008-11-01T20:18:00Z,28.1930,-82.7890,0.008,1111122 
COMPS,ioos:station:USF.COMPS:ANC:1,2008-11-01T20:24:00Z,28.1930,-82.7890,0.006,1111122 
COMPS,ioos:station:USF.COMPS:ANC:1,2008-11-01T20:30:00Z,28.1930,-82.7890,0.009,1111122 
COMPS,ioos:station:USF.COMPS:ANC:1,2008-11-01T20:36:00Z,28.1930,-82.7890,0.004,1111122 
COMPS,ioos:station:USF.COMPS:ANC:1,2008-11-01T20:42:00Z,28.1930,-82.7890,-0.002,1111122 
COMPS,ioos:station:USF.COMPS:ANC:1,2008-11-01T20:48:00Z,28.1930,-82.7890,-0.009,1111122 
COMPS,ioos:station:USF.COMPS:ANC:1,2008-11-01T20:54:00Z,28.1930,-82.7890,-0.019,1111122 
COMPS,ioos:station:USF.COMPS:ANC:1,2008-11-01T21:00:00Z,28.1930,-82.7890,-0.024,1111122 
COMPS,ioos:station:USF.COMPS:ANC:1,2008-11-01T21:06:00Z,28.1930,-82.7890,-0.028,1111122 
COMPS,ioos:station:USF.COMPS:ANC:1,2008-11-01T21:12:00Z,28.1930,-82.7890,-0.035,1111122 
COMPS,ioos:station:USF.COMPS:ANC:1,2008-11-01T21:18:00Z,28.1930,-82.7890,-0.041,1111122 
COMPS,ioos:station:USF.COMPS:ANC:1,2008-11-01T21:24:00Z,28.1930,-82.7890,-0.047,1111122 
COMPS,ioos:station:USF.COMPS:ANC:1,2008-11-01T21:30:00Z,28.1930,-82.7890,-0.059,1111122 
COMPS,ioos:station:USF.COMPS:ANC:1,2008-11-01T21:36:00Z,28.1930,-82.7890,-0.07,1111122 
COMPS,ioos:station:USF.COMPS:ANC:1,2008-11-01T21:42:00Z,28.1930,-82.7890,-0.077,1111122 
COMPS,ioos:station:USF.COMPS:ANC:1,2008-11-01T21:48:00Z,28.1930,-82.7890,-0.082,1111122 
COMPS,ioos:station:USF.COMPS:ANC:1,2008-11-01T21:54:00Z,28.1930,-82.7890,-0.086,1111122 
COMPS,ioos:station:USF.COMPS:ANC:1,2008-11-01T22:00:00Z,28.1930,-82.7890,-0.095,1111122 
COMPS,ioos:station:USF.COMPS:ANC:1,2008-11-01T22:06:00Z,28.1930,-82.7890,-0.108,1111122 
COMPS,ioos:station:USF.COMPS:ANC:1,2008-11-01T22:12:00Z,28.1930,-82.7890,-0.117,1111122 
COMPS,ioos:station:USF.COMPS:ANC:1,2008-11-01T22:18:00Z,28.1930,-82.7890,-0.121,1111122 
COMPS,ioos:station:USF.COMPS:ANC:1,2008-11-01T22:24:00Z,28.1930,-82.7890,-0.122,1111122 
COMPS,ioos:station:USF.COMPS:ANC:1,2008-11-01T22:30:00Z,28.1930,-82.7890,-0.128,1111122 
COMPS,ioos:station:USF.COMPS:ANC:1,2008-11-01T22:36:00Z,28.1930,-82.7890,-0.134,1111122 
COMPS,ioos:station:USF.COMPS:ANC:1,2008-11-01T22:42:00Z,28.1930,-82.7890,-0.137,1111122 
COMPS,ioos:station:USF.COMPS:ANC:1,2008-11-01T22:48:00Z,28.1930,-82.7890,-0.134,1111122 
COMPS,ioos:station:USF.COMPS:ANC:1,2008-11-01T22:54:00Z,28.1930,-82.7890,-0.134,1111122 
COMPS,ioos:station:USF.COMPS:ANC:1,2008-11-02T00:00:00Z,28.1930,-82.7890,-0.145,1111122 
COMPS,ioos:station:USF.COMPS:ANC:1,2008-11-02T00:06:00Z,28.1930,-82.7890,-0.142,1111122 
COMPS,ioos:station:USF.COMPS:ANC:1,2008-11-02T00:12:00Z,28.1930,-82.7890,-0.146,1111122 
COMPS,ioos:station:USF.COMPS:ANC:1,2008-11-02T00:18:00Z,28.1930,-82.7890,-0.144,1111122 
COMPS,ioos:station:USF.COMPS:ANC:1,2008-11-02T00:24:00Z,28.1930,-82.7890,-0.137,1111122 
COMPS,ioos:station:USF.COMPS:ANC:1,2008-11-02T00:30:00Z,28.1930,-82.7890,-0.135,1111122 
COMPS,ioos:station:USF.COMPS:ANC:1,2008-11-02T00:36:00Z,28.1930,-82.7890,-0.131,1111122 
COMPS,ioos:station:USF.COMPS:ANC:1,2008-11-02T00:42:00Z,28.1930,-82.7890,-0.125,1111122 
COMPS,ioos:station:USF.COMPS:ANC:1,2008-11-02T00:48:00Z,28.1930,-82.7890,-0.121,1111122 
COMPS,ioos:station:USF.COMPS:ANC:1,2008-11-02T00:54:00Z,28.1930,-82.7890,-0.115,1111122 
COMPS,ioos:station:USF.COMPS:ANC:1,2008-11-02T01:00:00Z,28.1930,-82.7890,-0.101,1111122 
COMPS,ioos:station:USF.COMPS:ANC:1,2008-11-02T01:06:00Z,28.1930,-82.7890,-0.092,1111122 
COMPS,ioos:station:USF.COMPS:ANC:1,2008-11-02T01:12:00Z,28.1930,-82.7890,-0.086,1111122 
COMPS,ioos:station:USF.COMPS:ANC:1,2008-11-02T01:18:00Z,28.1930,-82.7890,-0.082,1111122 
COMPS,ioos:station:USF.COMPS:ANC:1,2008-11-02T01:24:00Z,28.1930,-82.7890,-0.074,1111122 
COMPS,ioos:station:USF.COMPS:ANC:1,2008-11-02T01:30:00Z,28.1930,-82.7890,-0.062,1111122 
COMPS,ioos:station:USF.COMPS:ANC:1,2008-11-02T01:36:00Z,28.1930,-82.7890,-0.051,1111122 
COMPS,ioos:station:USF.COMPS:ANC:1,2008-11-02T01:42:00Z,28.1930,-82.7890,-0.038,1111122 
COMPS,ioos:station:USF.COMPS:ANC:1,2008-11-02T01:48:00Z,28.1930,-82.7890,-0.023,1111122 
COMPS,ioos:station:USF.COMPS:ANC:1,2008-11-02T01:54:00Z,28.1930,-82.7890,-0.012,1111122 
COMPS,ioos:station:USF.COMPS:ANC:1,2008-11-02T02:00:00Z,28.1930,-82.7890,-0.002,1111122 
COMPS,ioos:station:USF.COMPS:ANC:1,2008-11-02T02:06:00Z,28.1930,-82.7890,0.016,1111122 
COMPS,ioos:station:USF.COMPS:ANC:1,2008-11-02T02:12:00Z,28.1930,-82.7890,0.036,1111122 
COMPS,ioos:station:USF.COMPS:ANC:1,2008-11-02T02:18:00Z,28.1930,-82.7890,0.055,1111122 
COMPS,ioos:station:USF.COMPS:ANC:1,2008-11-02T02:24:00Z,28.1930,-82.7890,0.067,1111122 
COMPS,ioos:station:USF.COMPS:ANC:1,2008-11-02T02:30:00Z,28.1930,-82.7890,0.083,1111122 
COMPS,ioos:station:USF.COMPS:ANC:1,2008-11-02T02:36:00Z,28.1930,-82.7890,0.1,1111122 
COMPS,ioos:station:USF.COMPS:ANC:1,2008-11-02T02:42:00Z,28.1930,-82.7890,0.118,1111122 
COMPS,ioos:station:USF.COMPS:ANC:1,2008-11-02T02:48:00Z,28.1930,-82.7890,0.134,1111122 
COMPS,ioos:station:USF.COMPS:ANC:1,2008-11-02T02:54:00Z,28.1930,-82.7890,0.151,1111122 
COMPS,ioos:station:USF.COMPS:ANC:1,2008-11-02T03:00:00Z,28.1930,-82.7890,0.162,1111122 
COMPS,ioos:station:USF.COMPS:ANC:1,2008-11-02T03:06:00Z,28.1930,-82.7890,0.174,1111122 
COMPS,ioos:station:USF.COMPS:ANC:1,2008-11-02T03:12:00Z,28.1930,-82.7890,0.183,1111122 
COMPS,ioos:station:USF.COMPS:ANC:1,2008-11-02T03:18:00Z,28.1930,-82.7890,0.2,1111122 
COMPS,ioos:station:USF.COMPS:ANC:1,2008-11-02T03:24:00Z,28.1930,-82.7890,0.225,1111122 
COMPS,ioos:station:USF.COMPS:ANC:1,2008-11-02T03:30:00Z,28.1930,-82.7890,0.24,1111122 
COMPS,ioos:station:USF.COMPS:ANC:1,2008-11-02T03:36:00Z,28.1930,-82.7890,0.253,1111122 
COMPS,ioos:station:USF.COMPS:ANC:1,2008-11-02T03:42:00Z,28.1930,-82.7890,0.275,1111122 
COMPS,ioos:station:USF.COMPS:ANC:1,2008-11-02T03:48:00Z,28.1930,-82.7890,0.292,1111122 
COMPS,ioos:station:USF.COMPS:ANC:1,2008-11-02T03:54:00Z,28.1930,-82.7890,0.301,1111122 